Regional Weather Roundup
Issued by NWS

Home | Current Version | Previous Version | Text Only | Print | Product List | Glossary On
Versions: 1 2 3 4 5 6 7 8 9 10 11 12 13 14 15 16 17 18 19 20 21 22 23 24 25 26 27 28 29 30 31 32 33 34 35 36 37 38 39 40 41 42 43 44 45 46 47 48 49 50
000
ASUS43 KLSX 190959
RWRMO

WEATHER SUMMARY FOR MISSOURI
NATIONAL WEATHER SERVICE SPRINGFIELD MO
500 AM CDT FRI SEP 19 2014

NOTE: "FAIR" INDICATES FEW OR NO CLOUDS BELOW 12,000 FEET WITH NO
       SIGNIFICANT WEATHER AND/OR OBSTRUCTIONS TO VISIBILITY.
       CURRENT SKY AND/OR WEATHER CONDITIONS ARE NOT AVAILABLE FOR
       CHILLICOTHE AND FARMINGTON.

MOZ001>031-035>038-043-044-053-054-191100-
...NORTHERN AND WESTERN MISSOURI...

CITY           SKY/WX    TMP DP  RH WIND       PRES   REMARKS
KANSAS CTY INT CLOUDY    62  61  96 SE12      30.00F FOG
KANSAS C DTWN  CLOUDY    64  61  90 SE8       30.00F
LEE`S SUMMIT   CLOUDY    62  60  93 SE7       30.02S FOG
ST JOSEPH      CLOUDY    61  60  97 SE6       30.00S FOG
KIRKSVILLE     CLEAR     52  50  93 SE6       30.07R

$$
MOZ066>068-077>081-088>096-101>105-191100-
...SOUTHWEST MISSOURI...

CITY           SKY/WX    TMP DP  RH WIND       PRES   REMARKS
SPRINGFIELD    CLEAR     62  59  90 S7        30.02S
JOPLIN         CLEAR     63  61  93 SE7       30.00S

$$
MOZ032>034-039>042-045>050-055>058-069>072-191100-
...CENTRAL MISSOURI...

CITY           SKY/WX    TMP DP  RH WIND       PRES   REMARKS
COLUMBIA       CLEAR     58  55  90 E7          N/A
JEFFERSON CITY CLEAR     55  54  96 CALM      30.05S FOG
ROLLA          CLEAR     56  54  93 E6        30.05R FOG
SEDALIA        FOG       59  58  96 SE8       30.04S VSB 1/4
OSAGE BEACH    CLOUDY    55  54  94 CALM      30.05S VSB 1/2

$$
MOZ051-052-059>065-191100-
...EAST CENTRAL MISSOURI...

CITY           SKY/WX    TMP DP  RH WIND       PRES   REMARKS
ST LOUIS INTL  CLEAR     57  53  86 SE5       30.08S
SPIRIT OF STL  CLEAR     52  51  97 CALM      30.07S FOG
ST CHARLES     CLEAR     52  52 100 CALM      30.07F FOG

$$
MOZ072>076-082>087-097>100-106>115-191100-
...SOUTH CENTRAL AND SOUTHEAST MISSOURI...

CITY           SKY/WX    TMP DP  RH WIND       PRES   REMARKS
CAPE GIRARDEAU MOCLDY    56  54  93 CALM      30.05R
FARMINGTON     CLOUDY    55  54  94 CALM      30.08S
POPLAR BLUFF   CLEAR     59  54  83 NE6       30.02S
WEST PLAINS    FOG       55  53  93 CALM      30.05F VSB 3/4

$$


USA.gov is the U.S. government's official web portal to all federal, state and local government web resources and services.